Location: Colebrook
(42.0017°N, 73.0973°W)
Time: 14:47:24
(UTC-05:00)

Vanguard 2 - Pass Details

Date: 31 October 2021
Orbit: 554 x 2936 km, 32.9° (Epoch: 04 December)

Event Time Altitude Azimuth Distance (km) Brightness Sun altitude
Rises 23:19:26 0° 231° (SW) 6,741 12.3 -57.9°
Reaches altitude 10° 23:24:11 10° 227° (SW) 5,760 11.9 -58.4°
Enters shadow 23:24:22 10° 226° (SW) 5,723 11.8 -58.4°
